Location: Charleville
(26.4021°S, 146.2454°E)
Time: 03:28:32
(UTC+10:00)

N. Korean satellite - Pass Details

Date: 03 December 2021
Orbit: 446 x 491 km, 97.3° (Epoch: 19 January)

Event Time Altitude Azimuth Distance (km) Brightness Sun altitude
Rises 04:33:35 0° 24° (NNE) 2,451 10.1 -8.9°
Reaches altitude 10° 04:35:39 10° 30° (NNE) 1,593 9.2 -8.5°
Maximum altitude 04:38:55 44° 103° (ESE) 649 7.8 -7.8°
Drops below altitude 10° 04:42:17 10° 177° (S) 1,641 9.7 -7.2°
Sets 04:44:25 0° 183° (S) 2,535 10.6 -6.8°
